Miscellaneous Local Product
Issued by NWS North Platte, NE

Home | Current Version | Previous Version | Text Only | Print | Product List | Glossary On
Versions: 1 2 3 4 5 6 7 8 9 10 11 12 13 14 15 16 17 18 19 20 21 22 23 24 25 26 27 28 29 30 31 32 33 34 35 36 37 38 39 40 41 42 43 44 45 46 47 48 49 50
000
AXUS43 KLBF 300510
MISLBF


WESTERN AND NORTH CENTRAL NEBRASKA HOURLY WEATHER ROUNDUP
NATIONAL WEATHER SERVICE NORTH PLATTE NE
1100 PM CST THU JAN 29 2015

***STATIONS NOT REPORTING VARIABLES SUCH AS SKY/WEATHER OR
PRESSURE ARE PROVIDED BY THE NEBRASKA DEPARTMENT OF
ROADS...RAWS...AND APRS NETWORKS...AND ARE NOT UNDER
NATIONAL WEATHER SERVICE QUALITY CONTROL***

...OBSERVATIONS IN AND NEAR THE EASTERN PANHANDLE OF NEBRASKA...

CITY           SKY/WX    TMP DP  RH WIND       PRES   REMARKS
PINE RIDGE     CLEAR     26  14  60 W5        30.36F WCI  20
CHADRON        CLEAR     30  19  63 CALM      30.36F
ALLIANCE       CLEAR     24  18  77 S7        30.37F WCI  16
SIDNEY         MOCLDY    27  19  72 S7        30.39F WCI  19
WHITECLAY        N/A     24  13  61 E7          N/A  WCI  16
CRESCENT LAKE    N/A     27  14  58 SE3         N/A
LISCO            N/A     33  16  48 NE10        N/A  WCI  25
LEWELLEN         N/A     23  17  78 E3          N/A
$$

...OBSERVATIONS IN NORTH CENTRAL NEBRASKA...

CITY           SKY/WX    TMP DP  RH WIND       PRES   REMARKS
VALENTINE      CLEAR     24  18  77 NE3       30.43F
THEDFORD       CLEAR     24  18  77 CALM      30.44F
AINSWORTH      CLEAR     21  17  84 SE3       30.45S
O`NEILL        CLEAR     22  20  93 CALM      30.51R
ORD            CLEAR     18  14  84 CALM      30.48S
BROKEN BOW     CLEAR     20  14  77 CALM      30.47S
BROWNLEE         N/A     30  16  55 SE6         N/A  WCI  24
SPRINGVIEW       N/A     20  17  87 CALM        N/A
BREWSTER         N/A     22  19  85 CALM        N/A
ROSE             N/A     30  27  86 MISG        N/A
NEWPORT          N/A     27  26  96 E6          N/A  WCI  21
SARGENT          N/A     22  19  89 CALM        N/A
COMSTOCK         N/A     30  25  80 CALM        N/A
CHAMBERS         N/A     23  17  77 E3          N/A
EWING            N/A     20  17  89 CALM        N/A
$$

...OBSERVATIONS IN SOUTHWEST NEBRASKA AND FAR NORTHEAST COLORADO...

CITY           SKY/WX    TMP DP  RH WIND       PRES   REMARKS
WRAY           FAIR      32  21  64 CALM      30.45S
IMPERIAL       PTCLDY    26  17  68 S5        30.45S WCI  20
OGALLALA       PTCLDY    21  17  83 CALM      30.44S
NORTH PLATTE   PTCLDY    18  13  80 E3        30.46S
MCCOOK         CLEAR     23  17  78 W7        30.48S WCI  15
LEXINGTON      PTCLDY    19  17  89 N3        30.48S
BRADY            N/A     21  15  78 CALM        N/A
GOTHENBURG       N/A     23  15  70 CALM        N/A
CALLAWAY         N/A     21  17  85 CALM        N/A
$$

...NORTH PLATTE AREA...

CITY           SKY/WX    TMP DP  RH WIND       PRES   REMARKS
AIRPORT        PTCLDY    18  13  80 E3        30.46S
DOWNTOWN         N/A     22  17  82 CALM        N/A
$$

...SOME WEATHER OBSERVATIONS FROM AROUND THE REGION...

CITY           SKY/WX    TMP DP  RH WIND       PRES   REMARKS
DENVER         CLOUDY    36  25  64 S13       30.33F WCI  27
LARAMIE        CLOUDY    29  22  75 S16       30.29F WCI  17
CHEYENNE       MOCLDY    29  19  66 SW9       30.33F WCI  20
SCOTTSBLUFF    MOCLDY    28  22  78 E9        30.37F WCI  19
RAPID CITY     PTCLDY    27  12  53 SE7       30.32F WCI  19
PIERRE         CLEAR     21  18  88 E9        30.45F WCI  11
WINNER         FAIR      25  19  78 SE9       30.46F WCI  15
SIOUX FALLS    MOCLDY    23  17  78 NE5       30.53S WCI  17
OMAHA          PTCLDY    28  22  78 N9        30.54S WCI  19
GRAND ISLAND     N/A     24  18  77 MISG      30.51S
KANSAS CITY    CLEAR     28  22  78 N7        30.52R WCI  21
WICHITA        PTCLDY    30  22  72 N6        30.52S WCI  24
HAYS           CLEAR     27  12  54 NW6       30.51S WCI  20
LIBERAL        PTCLDY    30  14  51 CALM      30.53R
GOODLAND       PTCLDY    28  21  75 S9        30.46F WCI  19
$$



USA.gov is the U.S. government's official web portal to all federal, state and local government web resources and services.